Regional Weather Roundup
Issued by NWS Charleston, SC

Home | Current Version | Previous Version | Text Only | Print | Product List | Glossary On
Versions: 1 2 3 4 5 6 7 8 9 10 11 12 13 14 15 16 17 18 19 20 21 22 23 24 25 26 27 28 29 30 31 32 33 34 35 36 37 38 39 40 41 42 43 44 45 46 47 48 49 50
257
ASUS42 KCHS 250028
RWRCHS

REGIONAL WEATHER ROUNDUP
NATIONAL WEATHER SERVICE CHARLESTON SC
800 PM EDT SUN JUL 24 2016

NOTE: "FAIR" INDICATES FEW OR NO CLOUDS BELOW 12,000 FEET WITH NO
SIGNIFICANT WEATHER AND/OR OBSTRUCTIONS TO VISIBILITY.

NOT ALL STATIONS ARE QUALITY CONTROLLED. USE DATA WITH CAUTION...
ESPECIALLY DEWPOINT OBSERVATIONS.

SCZ027-030-031-034>040-042>050-250100-
...SOUTHEAST SOUTH CAROLINA...

CITY           SKY/WX    TMP DP  RH WIND       PRES   REMARKS
N CHARLESTON   PTCLDY    85  76  74 S8        30.02R HX  94
6HR MIN TEMP:  78; 6HR MAX TEMP:  94; 6HR PCP:  0.23;

WATERFRONT PRK   N/A     86  78  77 S8        30.00S HX  98
MOUNT PLEASANT FAIR      84  79  84 CALM      30.03R HX  96
JOHNS ISLAND   FAIR      84  77  79 S7        30.03R HX  94
PINOPOLIS        N/A     86  73  66 VRB3      29.94S HX  93
MONCKS CORNER  FAIR      79  73  83 S3        30.02R
SUMMERVILLE    NOT AVBL
BEAUFORT MCAS  PTCLDY    87  74  64 S5        30.02R HX  95
6HR MIN TEMP:  87; 6HR MAX TEMP:  98; 6HR PCP: TRACE;

BEAUFORT ARPT  FAIR      86  73  66 S8        30.02S HX  93
HILTON HEAD IS CLEAR     86  75  70 VRB6      30.04R HX  95
WALTERBORO     CLOUDY    88  73  62 SE8       30.02S HX  96
ALLENDALE      FAIR      88  75  66 S5        30.00R HX  97

...SOUTHERN MIDLANDS AND PEE DEE...

CITY           SKY/WX    TMP DP  RH WIND       PRES   REMARKS
GEORGETOWN     FAIR      82  77  83 S7        30.03S HX  91
KINGSTREE      FAIR      82  73  74 SE5       30.01R
ORANGEBURG     PTCLDY    88  75  65 SE8       30.01R HX  97
6HR MIN TEMP:  88; 6HR MAX TEMP:  96;

BARNWELL       NOT AVBL
AIKEN          FAIR      79  73  83 SE5       30.04R
MANNING        FAIR      84  73  70 S3        30.01R HX  91
COLUMBIA       PTCLDY    93  71  48 SE12      29.98R HX 100
6HR MIN TEMP:  85; 6HR MAX TEMP:  98; 6HR PCP:  0.23;

SUMTER         CLEAR     88  74  63 S7        29.97S HAZE    HX  96
6HR MIN TEMP:  88; 6HR MAX TEMP:  97;

FLORENCE       CLEAR     88  76  67 S9        30.00R HX  99
6HR MIN TEMP:  88; 6HR MAX TEMP:  96;

MYRTLE BEACH   CLEAR     86  72  62 S12       30.03R HX  92
N MYRTLE BEACH CLEAR     85  79  82 S10       30.01S HX  98
6HR MIN TEMP:  85; 6HR MAX TEMP:  89;


$$

GAZ063-065-086>088-099>101-113>116-118-119-134>141-150-250100-
...SOUTHEAST GEORGIA...

CITY           SKY/WX    TMP DP  RH WIND       PRES   REMARKS
SAVANNAH ARPT  PTCLDY    87  72  60 S8        30.02R HX  93
6HR MIN TEMP:  77; 6HR MAX TEMP:  99; 6HR PCP:  0.79;

HUNTER AAF     CLEAR     86  76  72 S7        29.99R HX  97
6HR MIN TEMP:  85; 6HR MAX TEMP:  93; 6HR PCP: TRACE;

FORT STEWART   CLEAR     80  75  85 S2        29.99S
6HR MIN TEMP:  75; 6HR MAX TEMP:  96; 6HR PCP:  1.06;

STATESBORO     CLEAR     85  73  67 CALM      30.02S HX  92
SYLVANIA       NOT AVBL
CLAXTON        FAIR      83  75  74 CALM      30.01S HX  91

...CSRA...CENTRAL AND FAR SOUTHEAST GEORGIA...

CITY           SKY/WX    TMP DP  RH WIND       PRES   REMARKS
THOMSON        NOT AVBL
AUGUSTA-BUSH   CLEAR     89  74  60 SE5       29.98R HX  98
6HR MIN TEMP:  89; 6HR MAX TEMP:  99;

AUGUSTA-DANIEL CLEAR     93  70  46 S6        30.00R HX  99
SWAINSBORO     HVY RAIN  77  72  83 W15       30.06R
VIDALIA        CLEAR     86  70  58 S7        30.02R HX  90
EASTMAN        FAIR      89  68  49 CALM      30.02R HX  92
HAZLEHURST     FAIR      87  72  61 CALM      30.00S HX  93
ALMA           PTCLDY    81  71  71 CALM      30.01R
6HR MIN TEMP:  81; 6HR MAX TEMP:  97;

WAYCROSS       PTCLDY    80  80  97 SW6       30.02R HX  90
JESUP          FAIR      81  79  94 CALM      30.02S
BAXLEY         CLOUDY    82  75  78 SE3       30.01S
BRUNSWICK      CLEAR     86  77  74 SE8       30.03S HX  97
SAINT SIMONS   CLEAR     86  74  67 SE12G17   30.02R HX  94
6HR MIN TEMP:  86; 6HR MAX TEMP:  92;


$$

SCZ027-028-034-036>038-045-046-048>050-GAZ119-141-250100-
...LAKE AND SUPPLEMENTAL COASTAL OBSERVATIONS...

STATION/POSITION TIME  TEMP    WIND        PRES    WAVE   SWELL
                       AIR SEA DIR/SP/G            HT/PER HT/PER/DIR
                 (UTC) (F)     (DEG/KT/KT) (MB)    (FT/S) (FT/S/D)
WINYAH BAY       2300   86     210/  9     1016.0
LAKE MURRAY      2300   94     180/  6/  8 1014.2F
ACE BASIN NERRS  2300   88     160/  2     1016.0S
FORT PULASKI     0000   86 88                N/A
SAPELO ISLAND    0000   87     150/  8     1017.0R

$$

ANZ835-935-AMZ111-154-330-350-352-354-370-450-454-472-250100-
...C-MAN AND BUOY OBSERVATIONS...

STATION/POSITION TIME  TEMP    WIND        PRES    WAVE   SWELL
                       AIR SEA DIR/SP/G            HT/PER HT/PER/DIR
                 (UTC) (F)     (DEG/KT/KT) (MB)    (FT/S) (FT/S/D)
BUOY 41004       2350   85 86  180/  8/ 10 1016.7R   2/ 8   2/110/ 8
BUOY 41008       2350   85 87  140/ 14/ 16 1016.4S   2/ 8   2/ 90/ 8
FOLLY BEACH CMAN 0000   85     190/ 12/ 14 1016.9R
CAPERS NEARSHORE 0008   85 84  190/ 10/ 14 1016.6R
FRIPP NEARSHORE  0008   86 87  180/ 12/ 16 1016.1R


STATION/POSITION TIME  TEMP    WIND        PRES    WAVE   SWELL
                       AIR SEA DIR/SP/G            HT/PER HT/PER/DIR
                 (UTC) (F)     (DEG/KT/KT) (MB)    (FT/S) (FT/S/D)
5E ST. MARYS GA  0001      87                N/A     3/ 8
FRYING PAN BUOY  0000   85 86  200/ 10/ 12 1016.9R
BUOY 41025       2350   85 85  230/ 12/ 16 1016.8R   2/ 8   2/120/ 8
CAPE LOOKOUT NC  0000   84     210/  9/ 12 1016.4S
BUOY 41002       2350   84 85  180/  4/  6 1018.3R   2/ 8   2/100/ 8
BUOY 41010       2320   85 88  130/  8/ 10 1017.4F
ST AUGUSTINE FL  0000   84 87  130/ 13/ 14 1018.0R


$$




USA.gov is the U.S. government's official web portal to all federal, state and local government web resources and services.